{"data":{"norad_id":33274,"intl_designator":"2008-038A","name":"SUPERBIRD-C2","alt_names":[],"object_type":"PAYLOAD","status":"ACTIVE","operator":null,"country":"JPN","launch_date":"2008-08-14","launch_site_code":"FRGUI","launch_vehicle":null,"mission":null,"orbit_class":"UNKNOWN","rcs_meters":12.6191,"size_class":null,"mass_kg":null,"dimensions":null,"purposes":["comms"],"wikipedia_slug":null,"has_3d_model":false,"image_url":null,"decayed_at":null,"tle_current":{"epoch":"2026-05-25T04:23:13.559712Z","epoch_age_seconds":59296,"freshness":"FRESH","line1":"1 33274U 08038A   26145.18279583 -.00000308  00000+0  00000+0 0  9999","line2":"2 33274   2.3040  81.5374 0005655  15.9264 347.1089  1.00270728105506","mean_motion":1.00270728,"eccentricity":0.0005655,"inclination_deg":2.304,"raan_deg":81.5374,"arg_perigee_deg":15.9264,"mean_anomaly_deg":347.1089,"bstar":0,"rev_number":10550,"period_min":1436.1120425893,"perigee_km":35763.046955772,"apogee_km":35810.735602756,"semimajor_km":42165.028279264,"source":"CELESTRAK","updated_at":"2026-05-25T13:38:13.860379Z"}}}